   1, "1990-02-22 12:00:00", 249.076538, 56.862476, 1.382502e+00, 2.477157e+02, 5.467137e+01, 1.011859e+03, 2.418750e+02, 5.578930e+01, 1.435161e+01, 2.460938e+02, 5.438580e+01, 0.000000e+00, 
   1, "1990-02-22 15:00:00", 253.114075, 54.756477, 1.750613e+00, 2.516564e+02, 5.290785e+01, 1.012163e+03, 2.510156e+02, 5.228060e+01, 1.552194e+01, 2.503125e+02, 5.228060e+01, 0.000000e+00, 
   1, "1990-02-22 18:00:00", 254.839371, 53.419819, 1.633596e+00, 2.537442e+02, 5.177311e+01, 1.012712e+03, 2.538281e+02, 5.087710e+01, 1.391580e+01, 2.524219e+02, 5.087710e+01, 0.000000e+00, 
   1, "1990-02-22 21:00:00", 257.214539, 52.126343, 2.153761e+00, 2.581103e+02, 5.055823e+01, 1.011111e+03, 2.559375e+02, 5.017530e+01, 1.484684e+01, 2.552344e+02, 4.947360e+01, 0.000000e+00, 
   1, "1990-02-23 00:00:00", 257.753632, 51.794991, 1.989609e+00, 2.585252e+02, 4.954442e+01, 1.010807e+03, 2.524219e+02, 5.157880e+01, 1.283056e+01, 2.552344e+02, 4.947360e+01, 0.000000e+00, 
   1, "1990-02-23 03:00:00", 258.525146, 51.103878, 2.394968e+00, 2.605277e+02, 4.875803e+01, 1.010454e+03, 2.538281e+02, 5.087710e+01, 1.403138e+01, 2.559375e+02, 4.877180e+01, 0.000000e+00, 
   1, "1990-02-23 06:00:00", 258.800232, 50.451248, 2.569896e+00, 2.609370e+02, 4.861837e+01, 1.008767e+03, 2.538281e+02, 5.087710e+01, 1.195709e+01, 2.566406e+02, 4.807010e+01, 0.000000e+00, 
   1, "1990-02-23 09:00:00", 260.511200, 49.240906, 2.896067e+00, 2.629707e+02, 4.722287e+01, 1.009467e+03, 2.538281e+02, 5.087710e+01, 1.450824e+01, 2.587500e+02, 4.666650e+01, 0.000000e+00, 
   1, "1990-02-23 12:00:00", 261.497223, 48.487083, 3.483193e+00, 2.629121e+02, 4.738365e+01, 1.007163e+03, 2.594531e+02, 4.736830e+01, 1.497648e+01, 2.594531e+02, 4.596480e+01, 0.000000e+00, 
   1, "1990-02-23 15:00:00", 262.889252, 47.350121, 3.878643e+00, 2.644034e+02, 4.643409e+01, 1.007337e+03, 2.594531e+02, 4.456130e+01, 1.725944e+01, 2.615625e+02, 4.456130e+01, 0.000000e+00, 
   1, "1990-02-23 18:00:00", 264.519501, 46.138546, 3.944163e+00, 2.662140e+02, 4.568655e+01, 1.006349e+03, 2.629688e+02, 4.385950e+01, 2.066256e+01, 2.643750e+02, 4.315780e+01, 0.000000e+00, 
   1, "1990-02-23 21:00:00", 265.714691, 45.384460, 3.998251e+00, 2.690045e+02, 4.545050e+01, 1.004949e+03, 2.643750e+02, 4.456130e+01, 1.866946e+01, 2.650781e+02, 4.245600e+01, 0.000000e+00, 
   1, "1990-02-24 00:00:00", 267.197479, 44.214275, 4.726166e+00, 2.692462e+02, 4.481997e+01, 1.005683e+03, 2.664844e+02, 4.175430e+01, 2.253323e+01, 2.650781e+02, 4.175430e+01, 0.000000e+00, 
   1, "1990-02-24 03:00:00", 268.612335, 43.214493, 5.686903e+00, 2.700609e+02, 4.432193e+01, 1.004633e+03, 2.685938e+02, 4.105250e+01, 2.305815e+01, 2.678906e+02, 4.035080e+01, 0.000000e+00, 
   1, "1990-02-24 06:00:00", 270.150604, 42.016106, 6.669943e+00, 2.719999e+02, 4.203221e+01, 1.001156e+03, 2.707031e+02, 4.035080e+01, 2.354474e+01, 2.678906e+02, 3.964900e+01, 0.000000e+00, 
   1, "1990-02-24 09:00:00", 271.449432, 42.010876, 6.726893e+00, 2.730399e+02, 4.234742e+01, 1.000072e+03, 2.721094e+02, 4.035080e+01, 2.384351e+01, 2.692969e+02, 3.964900e+01, 0.000000e+00, 
   1, "1990-02-24 12:00:00", 273.157471, 40.974911, 7.453632e+00, 2.753098e+02, 4.134986e+01, 9.973959e+02, 2.721094e+02, 4.035080e+01, 2.573911e+01, 2.721094e+02, 3.824550e+01, 0.000000e+00, 
   1, "1990-02-24 15:00:00", 274.818359, 40.546432, 7.378353e+00, 2.765904e+02, 4.138660e+01, 9.972889e+02, 2.735156e+02, 4.245600e+01, 2.777951e+01, 2.728125e+02, 3.824550e+01, 0.000000e+00, 
   1, "1990-02-24 18:00:00", 276.520660, 40.801243, 5.494800e+00, 2.783978e+02, 4.130928e+01, 9.988699e+02, 2.749219e+02, 4.105250e+01, 2.674948e+01, 2.749219e+02, 3.824550e+01, 0.000000e+00, 
   1, "1990-02-24 21:00:00", 278.882751, 40.799515, 5.948777e+00, 2.799315e+02, 4.158060e+01, 9.974095e+02, 2.763281e+02, 4.105250e+01, 2.610032e+01, 2.770312e+02, 3.824550e+01, 0.000000e+00, 
   1, "1990-02-25 00:00:00", 280.381226, 40.787254, 5.553154e+00, 2.808724e+02, 4.170760e+01, 1.002171e+03, 2.777344e+02, 4.105250e+01, 2.452414e+01, 2.784375e+02, 3.824550e+01, 0.000000e+00, 
   1, "1990-02-25 03:00:00", 282.272858, 40.882008, 5.709959e+00, 2.822206e+02, 4.170213e+01, 1.003652e+03, 2.791406e+02, 4.105250e+01, 2.147245e+01, 2.805469e+02, 3.824550e+01, 0.000000e+00, 
   1, "1990-02-25 06:00:00", 284.626648, 40.526772, 5.305112e+00, 2.835504e+02, 4.182952e+01, 1.007321e+03, 2.826562e+02, 3.964900e+01, 2.309163e+01, 2.847656e+02, 3.754380e+01, 0.000000e+00, 
   1, "1990-02-25 09:00:00", 286.661865, 40.143574, 6.469980e+00, 2.886979e+02, 4.031556e+01, 1.006404e+03, 2.833594e+02, 3.964900e+01, 2.318990e+01, 2.847656e+02, 3.754380e+01, 0.000000e+00, 
   1, "1990-02-25 12:00:00", 289.222778, 39.920822, 6.345180e+00, 2.917810e+02, 4.004560e+01, 1.008081e+03, 2.917969e+02, 3.754380e+01, 2.283949e+01, 2.875781e+02, 3.754380e+01, 0.000000e+00, 
   1, "1990-02-25 15:00:00", 291.519806, 40.205650, 6.200149e+00, 2.938776e+02, 4.033730e+01, 1.009444e+03, 2.988281e+02, 3.894730e+01, 2.582685e+01, 2.903906e+02, 3.754380e+01, 0.000000e+00, 
   1, "1990-02-25 18:00:00", 292.648193, 40.085766, 5.831346e+00, 1.000000e+25, 1.000000e+25, 1.011120e+03, 3.002344e+02, 3.964900e+01, 2.392787e+01, 2.910938e+02, 3.754380e+01, 0.000000e+00, 
   1, "1990-02-25 21:00:00", 293.689758, 40.621254, 5.290402e+00, 1.000000e+25, 1.000000e+25, 1.012397e+03, 3.009375e+02, 4.035080e+01, 2.331824e+01, 2.917969e+02, 3.824550e+01, 0.000000e+00, 
   1, "1990-02-26 00:00:00", 293.238068, 39.994026, 5.927470e+00, 2.920747e+02, 4.036341e+01, 1.013343e+03, 2.903906e+02, 3.894730e+01, 2.474604e+01, 2.910938e+02, 3.754380e+01, 0.000000e+00, 
   1, "1990-02-26 03:00:00", 294.465973, 40.023357, 5.753200e+00, 2.936678e+02, 4.030378e+01, 1.014746e+03, 2.917969e+02, 3.824550e+01, 2.438658e+01, 2.925000e+02, 3.754380e+01, 0.000000e+00, 
   1, "1990-02-26 06:00:00", 296.558899, 40.223721, 5.676622e+00, 3.001214e+02, 4.128574e+01, 1.013756e+03, 2.939062e+02, 3.824550e+01, 2.168364e+01, 2.953125e+02, 3.754380e+01, 0.000000e+00, 
   1, "1990-02-26 09:00:00", 298.067383, 40.547169, 5.442424e+00, 3.012307e+02, 4.153770e+01, 1.014870e+03, 2.967188e+02, 3.824550e+01, 2.278063e+01, 2.960156e+02, 3.824550e+01, 0.000000e+00, 
   1, "1990-02-26 12:00:00", 300.935944, 40.986137, 5.188475e+00, 3.028382e+02, 4.174421e+01, 1.015266e+03, 2.995312e+02, 3.894730e+01, 2.062193e+01, 2.995312e+02, 3.824550e+01, 0.000000e+00, 
   1, "1990-02-26 15:00:00", 303.134735, 41.465450, 4.923797e+00, 3.051115e+02, 4.211002e+01, 1.015960e+03, 3.107812e+02, 4.035080e+01, 2.062901e+01, 3.016406e+02, 3.894730e+01, 0.000000e+00, 
   1, "1990-02-26 18:00:00", 305.421021, 41.872028, 4.380959e+00, 3.098945e+02, 4.265162e+01, 1.014369e+03, 3.128906e+02, 4.105250e+01, 2.537476e+01, 3.051562e+02, 3.894730e+01, 0.000000e+00, 
   1, "1990-02-26 21:00:00", 307.508942, 42.766186, 4.396141e+00, 3.112287e+02, 4.334932e+01, 1.015681e+03, 3.150000e+02, 4.175430e+01, 2.534260e+01, 3.051562e+02, 4.035080e+01, 0.000000e+00, 
   1, "1990-02-27 00:00:00", 311.581360, 44.013027, 4.051012e+00, 3.148679e+02, 4.443314e+01, 1.014429e+03, 3.178125e+02, 4.315780e+01, 2.646737e+01, 3.114844e+02, 4.105250e+01, 0.000000e+00, 
   1, "1990-02-27 03:00:00", 314.825928, 45.359745, 4.327751e+00, 3.178753e+02, 4.533917e+01, 1.012608e+03, 3.199219e+02, 4.456130e+01, 2.860682e+01, 3.142969e+02, 4.245600e+01, 0.000000e+00, 
   1, "1990-02-27 06:00:00", 316.979858, 46.346409, 5.007123e+00, 3.198296e+02, 4.652618e+01, 1.009510e+03, 3.220312e+02, 4.526300e+01, 3.185892e+01, 3.150000e+02, 4.385950e+01, 0.000000e+00, 
   1, "1990-02-27 09:00:00", 320.723877, 47.274559, 4.872790e+00, 3.231308e+02, 4.745442e+01, 1.008616e+03, 3.255469e+02, 4.666650e+01, 3.101410e+01, 3.192188e+02, 4.456130e+01, 0.000000e+00, 
   1, "1990-02-27 12:00:00", 323.285767, 48.268227, 5.431710e+00, 3.254946e+02, 4.874974e+01, 1.005827e+03, 3.276562e+02, 4.807010e+01, 3.467269e+01, 3.206250e+02, 4.596480e+01, 0.000000e+00, 
   1, "1990-02-27 15:00:00", 326.368439, 49.027145, 5.378844e+00, 3.284253e+02, 4.970356e+01, 1.003499e+03, 3.304688e+02, 4.877180e+01, 3.568047e+01, 3.241406e+02, 4.666650e+01, 0.000000e+00, 
   1, "1990-02-27 18:00:00", 329.105713, 49.504768, 5.112188e+00, 3.314331e+02, 5.059788e+01, 9.997910e+02, 3.346875e+02, 4.947360e+01, 3.685009e+01, 3.276562e+02, 4.666650e+01, 0.000000e+00, 
   1, "1990-02-27 21:00:00", 333.368835, 50.442852, 4.647844e+00, 3.342534e+02, 5.103478e+01, 1.000350e+03, 3.367969e+02, 5.017530e+01, 3.366219e+01, 3.311719e+02, 4.807010e+01, 0.000000e+00, 
   1, "1990-02-28 00:00:00", 338.122101, 51.199574, 4.033617e+00, 3.382228e+02, 5.168987e+01, 9.986470e+02, 3.424219e+02, 5.017530e+01, 3.447859e+01, 3.353906e+02, 4.877180e+01, 0.000000e+00, 
   1, "1990-02-28 03:00:00", 342.035492, 51.710804, 3.783369e+00, 3.426579e+02, 5.213488e+01, 9.971976e+02, 3.438281e+02, 5.087710e+01, 3.363689e+01, 3.417188e+02, 4.877180e+01, 0.000000e+00, 
   1, "1990-02-28 06:00:00", 344.109802, 52.087864, 4.753042e+00, 3.458796e+02, 5.254014e+01, 9.930367e+02, 3.508594e+02, 5.087710e+01, 3.391301e+01, 3.424219e+02, 4.947360e+01, 0.000000e+00, 
   1, "1990-02-28 09:00:00", 348.432129, 52.466850, 3.318483e+00, 3.503455e+02, 5.286405e+01, 9.923634e+02, 3.536719e+02, 5.087710e+01, 3.091417e+01, 3.501562e+02, 5.228060e+01, 2.254430e+01, 
   1, "1990-02-28 12:00:00", 351.485168, 53.036591, 4.542484e+00, 3.532593e+02, 5.308669e+01, 9.869159e+02, 3.529688e+02, 5.017530e+01, 3.252375e+01, 3.529688e+02, 5.228060e+01, 2.597710e+01, 
   1, "1990-02-28 15:00:00", 356.059479, 52.975452, 5.408147e+00, 3.579890e+02, 5.320752e+01, 9.824096e+02, 3.571875e+02, 4.947360e+01, 3.406904e+01, 3.557812e+02, 5.087710e+01, 3.043196e+01, 
   1, "1990-02-28 18:00:00", 0.740612, 52.739437, 6.353217e+00, 9.079612e-01, 5.301875e+01, 9.791984e+02, 7.031000e-01, 5.017530e+01, 3.553545e+01, 2.109400e+00, 5.017530e+01, 3.223883e+01, 
   1, "1990-02-28 21:00:00", 4.288663, 53.232132, 5.599831e+00, 5.781020e+00, 5.312981e+01, 9.748529e+02, 3.515600e+00, 5.157880e+01, 3.252814e+01, 4.921900e+00, 5.228060e+01, 3.202148e+01, 
   1, "1990-03-01 00:00:00", 8.526049, 53.366940, 5.747308e+00, 9.228024e+00, 5.235138e+01, 9.742126e+02, 7.031200e+00, 4.947360e+01, 3.018767e+01, 7.031200e+00, 5.157880e+01, 2.921329e+01, 
   1, "1990-03-01 03:00:00", 13.583395, 53.088684, 6.228974e+00, 1.453062e+01, 5.227901e+01, 9.713857e+02, 1.125000e+01, 4.877180e+01, 2.888732e+01, 1.265620e+01, 5.157880e+01, 2.451347e+01, 
   1, "1990-03-01 06:00:00", 17.638435, 52.771496, 6.186900e+00, 1.899494e+01, 5.224832e+01, 9.714943e+02, 1.687500e+01, 4.877180e+01, 2.578474e+01, 1.828120e+01, 5.087710e+01, 2.300591e+01, 
   1, "1990-03-01 09:00:00", 20.903149, 52.341183, 6.718462e+00, 2.155457e+01, 5.221893e+01, 9.706184e+02, 1.687500e+01, 4.877180e+01, 2.884945e+01, 1.757810e+01, 5.087710e+01, 2.381602e+01, 
   1, "1990-03-01 12:00:00", 23.429916, 52.297268, 6.213462e+00, 2.413446e+01, 5.258535e+01, 9.744220e+02, 1.406250e+01, 5.228060e+01, 2.514906e+01, 1.968750e+01, 5.087710e+01, 2.346827e+01, 
   1, "1990-03-01 15:00:00", 25.465097, 52.429096, 6.199631e+00, 2.620310e+01, 5.289130e+01, 9.756967e+02, 1.617190e+01, 5.228060e+01, 2.367564e+01, 2.390620e+01, 5.017530e+01, 2.169406e+01, 
   1, "1990-03-01 18:00:00", 27.764116, 52.613995, 5.779628e+00, 2.820548e+01, 5.326239e+01, 9.787105e+02, 1.828120e+01, 5.228060e+01, 2.232178e+01, 2.601560e+01, 5.087710e+01, 2.098332e+01, 
   1, "1990-03-01 21:00:00", 28.669090, 53.216198, 5.862298e+00, 2.971544e+01, 5.425443e+01, 9.772623e+02, 1.898440e+01, 5.228060e+01, 2.199215e+01, 2.460940e+01, 5.157880e+01, 1.995822e+01, 
   1, "1990-03-02 00:00:00", 30.080561, 54.101624, 5.651755e+00, 3.067902e+01, 5.459506e+01, 9.798002e+02, 2.601560e+01, 5.228060e+01, 2.080078e+01, 2.671880e+01, 5.228060e+01, 2.058187e+01, 
   1, "1990-03-02 03:00:00", 31.693008, 54.533062, 5.819942e+00, 3.191980e+01, 5.513357e+01, 9.797180e+02, 3.937500e+01, 5.298230e+01, 2.023859e+01, 2.882810e+01, 5.228060e+01, 1.968482e+01, 
   1, "1990-03-02 06:00:00", 33.313484, 54.652325, 5.937198e+00, 3.325104e+01, 5.553044e+01, 9.806008e+02, 2.601560e+01, 5.087710e+01, 2.050499e+01, 3.304690e+01, 5.228060e+01, 1.906687e+01, 
   1, "1990-03-02 09:00:00", 34.400223, 55.634090, 5.582827e+00, 3.389627e+01, 5.619646e+01, 9.806835e+02, 4.218750e+01, 5.368410e+01, 2.030515e+01, 3.445310e+01, 5.298230e+01, 1.864001e+01, 
   1, "1990-03-02 12:00:00", 35.869034, 55.866585, 5.562804e+00, 3.535026e+01, 5.647276e+01, 9.828721e+02, 3.656250e+01, 5.368410e+01, 1.843932e+01, 3.445310e+01, 5.438580e+01, 1.748279e+01, 
   1, "1990-03-02 15:00:00", 36.504093, 56.584942, 5.669110e+00, 3.622034e+01, 5.691109e+01, 9.837558e+02, 3.023440e+01, 5.228060e+01, 1.875416e+01, 3.304690e+01, 5.438580e+01, 1.748837e+01, 
   1, "1990-03-02 18:00:00", 37.604488, 56.549416, 5.787625e+00, 3.743196e+01, 5.726978e+01, 9.847276e+02, 3.375000e+01, 5.157880e+01, 1.954295e+01, 3.445310e+01, 5.438580e+01, 1.917728e+01, 
   1, "1990-03-02 21:00:00", 38.914803, 57.454613, 5.371828e+00, 3.871859e+01, 5.783125e+01, 9.848588e+02, 3.656250e+01, 5.438580e+01, 2.096672e+01, 3.445310e+01, 5.578930e+01, 1.597141e+01, 
   1, "1990-03-03 00:00:00", 39.558174, 57.911343, 5.095919e+00, 3.964022e+01, 5.802186e+01, 9.860276e+02, 3.726560e+01, 5.368410e+01, 2.034094e+01, 3.445310e+01, 5.719280e+01, 1.150598e+01, 
   1, "1990-03-03 03:00:00", 39.948654, 58.507206, 5.089128e+00, 4.081887e+01, 5.814042e+01, 9.860673e+02, 3.937500e+01, 5.368410e+01, 2.064328e+01, 3.445310e+01, 5.789460e+01, 1.138535e+01, 
   1, "1990-03-03 06:00:00", 41.192619, 59.314342, 5.070393e+00, 4.205358e+01, 5.865949e+01, 9.863711e+02, 4.218750e+01, 5.368410e+01, 1.991195e+01, 3.937500e+01, 5.649110e+01, 0.000000e+00, 
   1, "1990-03-03 09:00:00", 41.566208, 59.498158, 4.694334e+00, 4.332402e+01, 5.896202e+01, 9.870397e+02, 4.359380e+01, 5.368410e+01, 2.041582e+01, 3.796880e+01, 5.719280e+01, 0.000000e+00, 
   1, "1990-03-03 12:00:00", 43.137669, 60.984062, 4.512741e+00, 4.485519e+01, 5.945738e+01, 9.869186e+02, 4.500000e+01, 5.508760e+01, 1.887455e+01, 4.007810e+01, 5.859630e+01, 0.000000e+00, 
   1, "1990-03-03 15:00:00", 43.269691, 62.440899, 4.407865e+00, 4.530733e+01, 5.993576e+01, 9.871656e+02, 3.164060e+01, 6.070160e+01, 1.843381e+01, 4.007810e+01, 5.999980e+01, 0.000000e+00, 
   1, "1990-03-03 18:00:00", 44.081757, 64.257011, 4.439373e+00, 4.683534e+01, 6.028058e+01, 9.868849e+02, 5.484380e+01, 6.842080e+01, 1.965294e+01, 4.218750e+01, 6.140330e+01, 0.000000e+00, 
   1, "1990-03-03 21:00:00", 45.411236, 65.423042, 3.876727e+00, 4.769647e+01, 6.410728e+01, 9.863107e+02, 5.835940e+01, 6.842080e+01, 2.074581e+01, 4.218750e+01, 6.280680e+01, 0.000000e+00, 
   1, "1990-03-04 00:00:00", 48.483006, 65.963081, 3.835268e+00, 4.833512e+01, 6.477892e+01, 9.853434e+02, 6.187500e+01, 6.912250e+01, 2.111152e+01, 4.500000e+01, 6.350850e+01, 0.000000e+00, 
